Tiempo cada hora Alio

Hoy, 2 Agosto, Lunes

Tiempo Temperatura Precipitaciones Viento Presión Humedad
00:00 +21°C° 0 mm 2 mps 737 mmHg 57%
01:00 +20°C° 0 mm 2 mps 737 mmHg 59%
02:00 +21°C° 0 mm 1 mps 737 mmHg 61%
03:00 +21°C° 0 mm 1 mps 737 mmHg 63%
04:00 +21°C° 0 mm 1 mps 737 mmHg 64%
05:00 +21°C° 0 mm 1 mps 737 mmHg 66%
06:00 +22°C° 0 mm 1 mps 737 mmHg 67%
07:00 +23°C° 0 mm 2 mps 738 mmHg 61%
08:00 +25°C° 0 mm 2 mps 738 mmHg 54%
09:00 +26°C° 0 mm 2 mps 738 mmHg 48%
10:00 +27°C° 0 mm 3 mps 738 mmHg 46%
11:00 +28°C° 0 mm 3 mps 738 mmHg 43%
12:00 +29°C° 0 mm 4 mps 738 mmHg 40%
13:00 +29°C° 0 mm 4 mps 738 mmHg 41%
14:00 +28°C° 0 mm 5 mps 737 mmHg 42%
15:00 +28°C° 0 mm 5 mps 737 mmHg 43%
16:00 +27°C° 0 mm 5 mps 737 mmHg 47%
17:00 +26°C° 0 mm 4 mps 737 mmHg 50%
18:00 +26°C° 0 mm 4 mps 737 mmHg 54%
19:00 +25°C° 0 mm 3 mps 737 mmHg 59%
20:00 +24°C° 0 mm 3 mps 737 mmHg 64%
21:00 +23°C° 0 mm 2 mps 738 mmHg 69%
22:00 +23°C° 0 mm 2 mps 738 mmHg 71%
23:00 +22°C° 0 mm 1 mps 738 mmHg 74%

Mañana, 3 Agosto, Martes

Tiempo Temperatura Precipitaciones Viento Presión Humedad
00:00 +22°C° 0 mm 1 mps 738 mmHg 76%
01:00 +22°C° 0 mm 1 mps 738 mmHg 77%
02:00 +22°C° 0 mm 1 mps 737 mmHg 79%
03:00 +21°C° 0 mm 1 mps 737 mmHg 80%
04:00 +22°C° 0 mm 1 mps 737 mmHg 79%
05:00 +20°C° 0 mm 0 mps 737 mmHg 78%
06:00 +20°C° 0 mm 0 mps 738 mmHg 76%
07:00 +24°C° 0 mm 1 mps 738 mmHg 67%
08:00 +26°C° 0 mm 1 mps 738 mmHg 57%
09:00 +27°C° 0 mm 2 mps 738 mmHg 48%
10:00 +28°C° 0 mm 3 mps 738 mmHg 46%
11:00 +29°C° 0 mm 3 mps 738 mmHg 44%
12:00 +32°C° 0 mm 4 mps 737 mmHg 42%
13:00 +30°C° 0 mm 4 mps 737 mmHg 44%
14:00 +30°C° 0 mm 4 mps 736 mmHg 45%
15:00 +30°C° 0 mm 4 mps 736 mmHg 47%
16:00 +29°C° 0 mm 4 mps 736 mmHg 48%
17:00 +29°C° 0 mm 4 mps 736 mmHg 49%
18:00 +28°C° 0 mm 4 mps 735 mmHg 50%
19:00 +27°C° 0 mm 4 mps 736 mmHg 56%
20:00 +25°C° 0 mm 4 mps 736 mmHg 62%
21:00 +24°C° 0 mm 3 mps 736 mmHg 68%
22:00 +24°C° 0 mm 3 mps 736 mmHg 70%
23:00 +24°C° 0 mm 3 mps 736 mmHg 72%

Pasado mañana, 4 Agosto, Miércoles

Tiempo Temperatura Precipitaciones Viento Presión Humedad
00:00 +24°C° 0 mm 3 mps 736 mmHg 74%
01:00 +24°C° 0 mm 2 mps 735 mmHg 76%
02:00 +24°C° 0 mm 2 mps 735 mmHg 77%
03:00 +24°C° 0 mm 1 mps 735 mmHg 79%
04:00 +24°C° 0 mm 1 mps 735 mmHg 78%
05:00 +24°C° 0 mm 1 mps 735 mmHg 77%
06:00 +24°C° 0 mm 1 mps 736 mmHg 76%
07:00 +25°C° 0 mm 1 mps 736 mmHg 72%
08:00 +25°C° 0 mm 2 mps 736 mmHg 68%
09:00 +26°C° 0 mm 2 mps 736 mmHg 64%
10:00 +27°C° 0.1 mm 2 mps 736 mmHg 62%
11:00 +27°C° 0.1 mm 2 mps 736 mmHg 60%
12:00 +28°C° 0.1 mm 3 mps 736 mmHg 57%
13:00 +28°C° 0.6 mm 3 mps 736 mmHg 59%
14:00 +28°C° 0.6 mm 4 mps 736 mmHg 60%
15:00 +28°C° 0.6 mm 5 mps 736 mmHg 62%
16:00 +27°C° 0.5 mm 5 mps 736 mmHg 65%
17:00 +26°C° 0.5 mm 5 mps 736 mmHg 67%
18:00 +25°C° 0.5 mm 5 mps 736 mmHg 70%
19:00 +23°C° 0.2 mm 4 mps 737 mmHg 75%
20:00 +22°C° 0.2 mm 4 mps 738 mmHg 81%
21:00 +21°C° 0.2 mm 3 mps 738 mmHg 86%
22:00 +21°C° 0 mm 3 mps 738 mmHg 87%
23:00 +21°C° 0 mm 2 mps 738 mmHg 87%

5 Agosto, Jueves

Tiempo Temperatura Precipitaciones Viento Presión Humedad
00:00 +22°C° 0 mm 1 mps 738 mmHg 88%
01:00 +22°C° 0 mm 1 mps 738 mmHg 87%
02:00 +22°C° 0 mm 1 mps 737 mmHg 85%
03:00 +21°C° 0 mm 1 mps 737 mmHg 84%
04:00 +22°C° 0 mm 1 mps 737 mmHg 78%
05:00 +21°C° 0 mm 2 mps 737 mmHg 72%
06:00 +21°C° 0 mm 2 mps 737 mmHg 66%
07:00 +24°C° 0 mm 2 mps 738 mmHg 55%
08:00 +25°C° 0 mm 2 mps 738 mmHg 45%
09:00 +27°C° 0 mm 2 mps 738 mmHg 34%
10:00 +28°C° 0 mm 3 mps 737 mmHg 34%
11:00 +29°C° 0 mm 3 mps 737 mmHg 35%
12:00 +32°C° 0 mm 4 mps 737 mmHg 36%
13:00 +32°C° 0 mm 4 mps 736 mmHg 37%
14:00 +32°C° 0 mm 4 mps 736 mmHg 38%
15:00 +33°C° 0 mm 4 mps 735 mmHg 39%
16:00 +30°C° 0 mm 4 mps 735 mmHg 46%
17:00 +29°C° 0 mm 4 mps 735 mmHg 53%
18:00 +28°C° 0 mm 4 mps 735 mmHg 61%
19:00 +27°C° 0 mm 3 mps 735 mmHg 69%
20:00 +26°C° 0 mm 3 mps 735 mmHg 77%
21:00 +24°C° 0 mm 3 mps 735 mmHg 86%
22:00 +25°C° 0 mm 3 mps 735 mmHg 85%
23:00 +25°C° 0 mm 3 mps 735 mmHg 84%

6 Agosto, Viernes

Tiempo Temperatura Precipitaciones Viento Presión Humedad
00:00 +25°C° 0 mm 2 mps 735 mmHg 83%
01:00 +25°C° 0 mm 2 mps 735 mmHg 84%
02:00 +24°C° 0 mm 2 mps 734 mmHg 84%
03:00 +24°C° 0 mm 2 mps 734 mmHg 85%
04:00 +24°C° 0.2 mm 2 mps 734 mmHg 85%
05:00 +25°C° 0.2 mm 2 mps 734 mmHg 85%
06:00 +25°C° 0.2 mm 2 mps 734 mmHg 85%
07:00 +25°C° 0.3 mm 3 mps 735 mmHg 83%
08:00 +26°C° 0.3 mm 3 mps 735 mmHg 80%
09:00 +26°C° 0.3 mm 3 mps 735 mmHg 78%
10:00 +26°C° 0.2 mm 3 mps 735 mmHg 78%
11:00 +26°C° 0.2 mm 3 mps 734 mmHg 78%
12:00 +25°C° 0.2 mm 3 mps 734 mmHg 78%
13:00 +26°C° 0 mm 4 mps 734 mmHg 76%
14:00 +26°C° 0 mm 4 mps 733 mmHg 74%
15:00 +27°C° 0 mm 4 mps 733 mmHg 72%
16:00 +27°C° 0 mm 4 mps 733 mmHg 72%
17:00 +26°C° 0 mm 4 mps 733 mmHg 72%
18:00 +26°C° 0 mm 3 mps 732 mmHg 72%
19:00 +26°C° 0 mm 3 mps 732 mmHg 77%
20:00 +25°C° 0 mm 3 mps 732 mmHg 82%
21:00 +24°C° 0 mm 3 mps 732 mmHg 87%
22:00 +24°C° 0 mm 2 mps 732 mmHg 88%
23:00 +24°C° 0 mm 2 mps 732 mmHg 89%

7 Agosto, Sábado

Tiempo Temperatura Precipitaciones Viento Presión Humedad
00:00 +24°C° 0 mm 2 mps 732 mmHg 91%
01:00 +24°C° 0.1 mm 2 mps 731 mmHg 91%
02:00 +24°C° 0.1 mm 2 mps 731 mmHg 91%
03:00 +24°C° 0.1 mm 2 mps 731 mmHg 92%
04:00 +24°C° 0.1 mm 2 mps 731 mmHg 90%
05:00 +24°C° 0.1 mm 1 mps 731 mmHg 89%
06:00 +25°C° 0.1 mm 1 mps 731 mmHg 88%
07:00 +26°C° 0 mm 1 mps 731 mmHg 81%
08:00 +27°C° 0 mm 2 mps 731 mmHg 73%
09:00 +28°C° 0 mm 2 mps 731 mmHg 66%
10:00 +29°C° 0 mm 3 mps 731 mmHg 58%
11:00 +32°C° 0 mm 4 mps 732 mmHg 51%
12:00 +33°C° 0 mm 4 mps 732 mmHg 43%
13:00 +34°C° 0 mm 5 mps 732 mmHg 39%
14:00 +34°C° 0 mm 5 mps 732 mmHg 34%
15:00 +35°C° 0 mm 6 mps 732 mmHg 30%
16:00 +34°C° 0 mm 5 mps 732 mmHg 32%
17:00 +32°C° 0 mm 5 mps 733 mmHg 35%
18:00 +30°C° 0 mm 4 mps 733 mmHg 38%
19:00 +28°C° 0 mm 4 mps 734 mmHg 50%
20:00 +26°C° 0 mm 4 mps 735 mmHg 61%
21:00 +23°C° 0 mm 4 mps 736 mmHg 73%
22:00 +24°C° 0 mm 3 mps 737 mmHg 75%
23:00 +24°C° 0 mm 3 mps 737 mmHg 78%
Mostrar más

Necesitamos Su Consentimiento

Meteoprog y nuestros Proveedores de Servicios pueden almacenar y acceder a sus datos personales como cookies, identificadores de dispositivo u otras tecnologías similares de su dispositivo y procesar dichos datos para personalizar contenido y anuncios, además de ofrecer funciones de redes sociales y analizar el tráfico.

  • Almacenar y/o acceder a información en su dispositivo

    Se puede almacenar o acceder a cookies, identificadores de dispositivo u otra información de su dispositivo para los fines anteriormente indicados.

  • Anuncios y contenido personalizados, medición de anuncios y contenido, percepciones del público, y desarrollo de productos

    Los anuncios y el contenido pueden personalizarse en base a su perfil. Se pueden añadir más datos para personalizar mejor los anuncios y contenidos. Se puede medir el rendimiento de los anuncios y contenidos. Se puede obtener la percepción sobre el público que ha visto los anuncios y contenidos. Dichos datos pueden usarse para desarrollar o mejorar la experiencia del usuario, sistemas y software.

Al hacer clic en ‘Estoy De Acuerdo’ usted permitirá el uso de las cookies, identificadores de dispositivo, balizas web u otras tecnologías similares indicadas. Su configuración puede cambiarse desde el navegador de su dispositivo.

Para ciertos fines, los intereses legítimos pueden ser considerados por encima del consentimiento. Puede leer más sobre ello en nuestra Política de Privacidad y Cookies.